Location: S�tio Al�vio W. Simm
(26.2084°S, 49.4502°W)
Time: 03:59:45
(UTC+00:00)

Daily predictions for brighter satellites

Satellite Brightness Start Highest point End
(mag) Time Altitude Azimuth Time Altitude Azimuth Time Altitude Azimuth
Centaur D-1A AC-31 4.0 05:50:47 21° E 05:50:47 21° E 05:53:45 10° E
Cosmos 2333 Rocket 4.4 06:00:20 10° SSE 06:04:42 22° ESE 06:09:02 10° ENE
Cosmos 2227 Rocket 4.0 06:24:31 25° ENE 06:25:17 25° ENE 06:29:52 10° SE
USA 229 DEB 4.2 06:35:08 57° NNE 06:36:09 62° ENE 06:43:36 10° SE
USA 229 4.2 06:35:10 56° NNE 06:36:14 61° ENE 06:43:41 10° SE
Cosmos 2219 3.8 06:42:34 54° E 06:42:34 54° E 06:47:45 10° SSE
ALOS 3.3 06:56:53 10° NNE 07:01:20 45° ESE 07:05:50 10° S
USA 281 4.5 07:00:23 10° NE 07:06:23 39° ESE 07:12:26 10° S
ISS -0.6 07:07:22 11° NE 07:07:45 11° NE 07:08:44 10° ENE
Cosmos 2297 Rocket 2.0 07:11:08 76° NNW 07:11:37 87° WSW 07:17:19 10° SSE
ASTRO E2 3.8 07:13:50 42° ENE 07:13:50 42° ENE 07:16:36 10° ENE
Meteor 1-31 Rocket 3.3 07:14:45 10° NNE 07:18:36 59° ESE 07:22:32 10° S
METEOR-M 4.3 07:16:18 10° NNE 07:21:37 71° ESE 07:26:59 10° S
CZ-2C R/B 1.7 07:25:26 48° SSE 07:25:26 48° SSE 07:28:32 10° ESE
Lacrosse 5 rocket 3.4 07:27:19 18° SSW 07:27:19 18° SSW 07:28:51 10° S
ATLAS CENTAUR R/B 3.2 07:27:29 22° SSW 07:27:29 22° SSW 07:29:38 10° S
NOSS 3-1 (C) 4.4 07:26:43 38° WNW 07:29:38 51° WSW 07:37:37 10° SSE
Cosmos 1500 4.0 07:28:10 14° NNE 07:31:12 51° E 07:34:54 10° SSE
Cosmos 1862 Rocket 3.5 07:27:31 10° SSW 07:37:16 - N 07:31:44 63° WSW
FENGYUN 3A 3.5 07:27:13 10° N 07:32:38 72° WNW 07:38:07 10° SSW
Cosmos 2219 Rocket 2.1 07:27:35 10° SSW 07:33:08 61° WNW 07:38:41 10° N
IRIDIUM 114 4.3 07:30:39 10° N 07:35:53 87° E 07:41:11 10° S
Cosmos 1607 4.5 07:30:47 10° SSW 07:36:46 58° ESE 07:42:44 10° NE
COSMOS 2428 2.6 07:33:35 10° SSW 07:39:13 62° WNW 07:44:49 10° N
Geosat 4.5 07:34:58 10° S 07:39:39 38° WSW 07:39:55 38° WSW
Delta 128 4.5 07:37:08 39° W 07:39:45 83° S 07:47:08 10° E
H-2A R/B 2.8 07:36:28 10° SSE 07:40:33 50° E 07:44:39 10° N
Cosmos 1933 Rocket 4.1 07:42:06 38° SW 07:42:06 38° SW 07:45:30 10° S
IRIDIUM 103 4.2 07:39:48 10° N 07:45:00 75° W 07:50:18 10° S
GEOS 3 Rocket 4.0 07:40:19 10° N 07:45:09 39° WNW 07:46:15 35° W
Meteor 2-20 Rocket 4.4 07:39:38 10° S 07:45:53 88° W 07:52:04 10° N
Cosmos 1934 Rocket 4.2 07:42:24 20° NNW 07:46:24 47° W 07:52:28 10° S
Cosmos 2237 Rocket 3.2 07:41:15 10° S 07:46:48 49° ESE 07:52:17 10° NE
Cosmos 1980 4.4 07:42:51 10° S 07:48:26 55° ESE 07:53:56 10° NNE
Cosmos 2333 Rocket 2.7 07:43:43 10° SW 07:48:57 37° WNW 07:54:10 10° N
Meteor 2-20 4.5 07:42:54 10° SSW 07:48:58 58° W 07:55:00 10° N
SL-08 R/B 4.5 07:46:29 10° SSW 07:49:58 26° WSW 07:49:58 26° WSW
Landsat 5 3.6 07:47:03 10° SSE 07:51:25 80° ENE 07:55:50 10° N
Helios 1B 4.5 07:49:07 10° S 07:53:30 72° WSW 07:57:48 10° NNW
Meteor 1-18 Rocket 4.2 07:47:51 10° S 07:53:38 88° W 07:59:14 10° N
TELKOM 3 4.0 07:54:51 35° NE 07:54:51 35° NE 07:56:52 10° ESE
ERS-2 3.7 07:52:59 10° SSE 07:56:27 37° E 07:59:52 10° N
Centaur D-1AR AC-36 3.7 07:42:08 22° WNW 07:56:29 62° N 08:01:27 10° E
USA 215 3.7 07:51:15 10° NE 07:57:42 64° SE 08:04:11 10° SSW
Okean 1 3.3 07:54:08 10° SSW 07:58:09 59° W 08:02:07 10° N
Cosmos 482 Debris 3.6 07:58:07 50° WNW 07:58:23 53° NW 08:02:06 10° NNE
Meteor 1-19 Rocket 4.1 07:53:40 10° S 07:59:12 84° W 08:04:36 10° N
Mugunghwa Rocket 4.1 07:56:17 23° WNW 08:00:17 66° NNE 08:06:36 10° E
Cosmos 1869 Rocket 3.4 07:56:25 10° N 08:00:45 75° W 08:05:10 10° S
GPS 2-04 Rocket1 3.3 08:04:37 17° SW 08:06:51 40° SSE 08:10:05 10° E
H-2A R/B 0.4 08:06:33 32° WSW 08:07:17 51° S 08:08:55 10° E
Cosmos 2227 Rocket 3.0 08:06:24 21° WNW 08:09:05 30° WSW 08:14:03 10° S
SJ-12 4.1 08:05:16 10° N 08:09:16 47° W 08:13:18 10° SSW
Cosmos 1153 Rocket 4.4 08:03:10 10° N 08:09:24 84° W 08:15:38 10° S
CSL-04 DEB 4.4 08:06:10 10° S 08:10:14 65° WSW 08:14:20 10° NNW
SJ 16-02 2.9 08:06:40 10° NNE 08:10:46 38° E 08:14:54 10° SSE
Meteor 1-5 Rocket 4.2 08:06:05 10° NNW 08:11:41 70° W 08:17:34 10° S
Cosmos 1605 Rocket 4.3 08:07:46 10° NNW 08:13:47 45° W 08:19:48 10° S
OAO 3 Copernicus 4.4 08:11:01 15° WSW 08:15:19 83° SSE 08:20:25 10° ENE
Cosmos 1437 Rocket 4.1 08:17:46 10° SW 08:20:23 18° W 08:22:59 10° NW
ADEOS Rocket 3.8 08:13:07 10° SSE 08:21:00 78° ENE 08:28:27 10° N
CZ-4B DEB 4.3 08:18:51 10° NNE 08:24:22 84° ESE 08:29:56 10° S
SOZ 4.4 08:23:15 10° SW 08:25:21 89° WNW 08:28:55 10° NE
Cosmos 1703 Rocket 3.9 08:23:29 10° SSW 08:27:40 42° W 08:31:46 10° NNW
CZ-4C R/B 4.3 08:25:12 10° SSW 08:28:04 23° WSW 08:30:57 10° NW
Okean 3 4.2 08:24:30 10° S 08:28:45 58° E 08:32:58 10° NNE
Spot 2 4.4 08:27:58 10° N 08:31:54 41° W 08:36:07 10° SSW
CZ-4B R/B 4.0 08:31:33 10° NW 08:34:17 19° W 08:37:07 10° SW
SMAP 4.4 08:32:12 10° NNE 08:36:38 45° ESE 08:41:07 10° S
SEDSat Delta rocket 3.6 08:32:21 10° WSW 08:37:12 73° SSE 08:42:48 10° ENE
ALOS 4.0 08:37:21 10° WNW 08:38:51 11° W 08:40:22 10° WSW
Fermi 3.8 08:35:13 10° W 08:39:19 83° N 08:43:29 10° E
H-2A R/B 2.9 08:37:49 10° N 08:42:12 49° W 08:46:34 10° SSW
PAYLOAD B 4.3 08:37:47 10° N 08:43:24 78° WNW 08:49:03 10° SSW
ARGOS Delta rocket 4.2 08:38:46 10° N 08:43:40 50° W 08:48:53 10° SSW
ISS -3.1 08:41:02 10° WNW 08:44:14 38° SW 08:47:28 10° SSE
SAR-Lupe-4 3.8 08:41:02 10° SSE 08:44:39 78° ENE 08:48:14 10° N
Okean 1-7 3.9 08:42:03 10° SSW 08:45:47 27° W 08:49:27 10° NNW
Cosmos 773 Rocket 4.0 08:41:16 10° SSW 08:46:31 73° WNW 08:51:39 10° N
